Home   Weather   Mount Vernon   Past weeks
Flag for USA

Past Weather in Mount Vernon, New York, USA — Yesterday and Last 2 Weeks

Now
79 °F

Partly sunny.


Feels Like: 80 °F
Forecast: 89 / 70 °F
Wind: 3 mph from Northwest

Location: La Guardia Airport

Current Time: Jun 27, 2019 at 8:38:02 am

Latest Report: Jun 27, 2019 at 7:51 am


Visibility: 10 mi

Pressure: 30.11 "Hg

Humidity: 54%

Dew Point: 61 °F

Location of Mount VernonLocation

Past Weather in Mount Vernon — Graph

°F

Mount Vernon Temperature Yesterday

Maximum temperature yesterday: 90 °F (at 5:51 pm)
Minimum temperature yesterday: 69 °F (at 5:51 am)
Average temperature yesterday: 79 °F

High & Low Weather Summary for the Past Weeks

 TemperatureHumidityPressure
High90 °F (Jun 26, 5:51 pm)100% (Jun 19, 3:51 am)30.19 "Hg (Jun 19, 3:51 am)
Low58 °F (Jun 13, 9:23 am)24% (Jun 15, 4:51 pm)29.42 "Hg (Jun 21, 3:51 am)
Average72 °F67%29.86 "Hg
* Reported Jun 12 6:51 am — Jun 27 6:51 am, Mount Vernon. Weather by CustomWeather, © 2019

Note: Actual official high and low records may vary slightly from our data, if they occured in-between our weather recording intervals... More about our weather records

Advertising

Mount Vernon Weather History for the Previous 24 Hours

Scroll right to see more
 ConditionsComfort  
Time TempWeatherWind HumidityBarometerVisibility
6:51 am
Thu, Jun 27
76 °FScattered clouds.7 mph62%30.11 "Hg10 mi
5:51 am74 °FScattered clouds.No wind71%30.09 "Hg10 mi
4:51 am73 °FPassing clouds.No wind74%30.07 "Hg10 mi
3:51 am74 °FPassing clouds.5 mph74%30.07 "Hg10 mi
2:51 am74 °FPassing clouds.3 mph69%30.05 "Hg10 mi
1:51 am78 °FPassing clouds.7 mph62%30.04 "Hg10 mi
12:51 am78 °FPassing clouds.No wind64%30.03 "Hg10 mi
11:51 pm
Wed, Jun 26
79 °FPassing clouds.No wind60%30.03 "Hg10 mi
10:51 pm80 °FPassing clouds.8 mph60%30.02 "Hg10 mi
9:51 pm81 °FPartly cloudy.7 mph56%30.01 "Hg10 mi
8:51 pm84 °FPartly cloudy.3 mph49%30.01 "Hg10 mi
7:51 pm87 °FBroken clouds.6 mph36%29.98 "Hg10 mi
6:51 pm89 °FScattered clouds.10 mph32%29.99 "Hg10 mi
5:51 pm90 °FPassing clouds.10 mph29%29.97 "Hg10 mi
4:51 pm89 °FPassing clouds.12 mph30%29.97 "Hg10 mi
3:51 pm88 °FPassing clouds.5 mph30%29.97 "Hg10 mi
2:51 pm88 °FPassing clouds.7 mph30%29.98 "Hg10 mi
1:51 pm86 °FPassing clouds.6 mph31%29.99 "Hg10 mi
12:51 pm85 °FPassing clouds.10 mph36%30.00 "Hg10 mi
11:51 am83 °FPassing clouds.8 mph41%30.01 "Hg10 mi
10:51 am81 °FPassing clouds.6 mph47%30.01 "Hg10 mi
9:51 am80 °FPassing clouds.3 mph51%30.02 "Hg10 mi
8:51 am79 °FPassing clouds.6 mph52%30.03 "Hg10 mi
Weather by CustomWeather, © 2019

See weather overview